Voltar ao catálogo

FENGYUN 1C DEB

AtivoPO
NORAD 36995·DEBRIS·🇨🇳 China

Lançado May 10, 1999 de Taiyuan Satellite Launch Center

Loading…

Próximas Passagens (próximas 24 horas)

TLE

EnvelhecendoSource: Space-Track

Época: Sep 3, 2026, 20:11 UTC

1 36995U 99025ECB 26246.84160025  .00000178  00000-0  13441-3 0  9995
2 36995  98.3059 108.8280 0038206 277.2248  82.4579 14.04922005672799

Acompanhe FENGYUN 1C DEB em tempo real com AllMySat

Download on the App Store